Retour au catalogue

FENGYUN 1C DEB

LostSSO
NORAD 38123·DEBRIS·🇨🇳 China

Lancé May 10, 1999 depuis Taiyuan Satellite Launch Center

Loading…

Prochains Passages (prochaines 24 heures)

TLE

PériméSource: Space-Track

Époque: Oct 16, 2022, 08:09 UTC

1 38123U 99025EPU 22289.33982301  .00001999  00000-0  27779-2 0  9996
2 38123 100.1183 334.4983 0433743 188.0300 171.3716 13.26334165632428

Suivez FENGYUN 1C DEB en temps réel avec AllMySat

Download on the App Store